Cloquet, MN

10:14 AM CST on December 10, 2019 (GMT -0600)
Cloquet Carlton County

Weather History for KCOQ - November, 2019

Change the Weather History Date:

Sunday, November 17, 2019

  Actual Average Record
Temperature  
Mean Temperature 32 °F -  
Max Temperature 35 °F 34 °F 66 °F (2001)
Min Temperature 28 °F 21 °F 0 °F (2005)
Degree Days  
Heating Degree Days 34    
Moisture  
Dew Point 28 °F    
Average Humidity 86    
Maximum Humidity 100    
Minimum Humidity 80    
Precipitation  
Precipitation 0.02 in - - ()
Sea Level Pressure  
Sea Level Pressure 29.82 in    
Wind  
Wind Speed 7 mph ()    
Max Wind Speed 13 mph    
Max Gust Speed -    
Visibility 7.2 miles    
Events Rain , Snow    
Averages and records for this station are not official NWS values.
T = Trace of Precipitation, MM = Missing Value Source: Averaged Metar Reports

Daily Weather History Graph

Daily Weather History Graph

Search for Another Location

Airport or City:

Astronomy

Nov. 17, 2019 Rise Set
Actual Time 7:15 AM CST 4:34 PM CST
Civil Twilight 6:41 AM CST 5:07 PM CST
Nautical Twilight 6:05 AM CST 5:44 PM CST
Astronomical Twilight 5:29 AM CST 6:20 PM CST
Moon 9:06 PM CST (11/17) 12:06 PM CST (11/17)
Length of Visible Light 10h 25m
Length of Day
9h 19m
Waning Gibbous, 73% of the Moon is Illuminated
Nov 17
Waning Gibbous
Nov 19
Last Quarter
Nov 26
New
Dec 4
First Quarter
Dec 11
Full

Hourly Weather History & Observations

Time (CST) Temp. Windchill Dew Point Humidity Pressure Visibility Wind Dir Wind Speed Gust Speed Precip Events Conditions
12:15 AM 33.8 °F 27.7 °F 30.2 °F 87% 29.90 in 3.0 mi South 6.9 mph - 0.01 in Snow Light Snow
12:35 AM 33.8 °F 28.6 °F 30.2 °F 87% 29.89 in 2.5 mi South 5.8 mph - 0.01 in Snow Light Snow
12:56 AM 33.8 °F 27.7 °F 32.0 °F 93% 29.88 in 2.0 mi South 6.9 mph - N/A Snow Light Snow
1:15 AM 33.8 °F 27.0 °F 32.0 °F 93% 29.88 in 2.5 mi SSW 8.1 mph - 0.01 in Snow Light Snow
1:55 AM 33.8 °F 26.4 °F 32.0 °F 93% 29.87 in 2.0 mi South 9.2 mph - 0.01 in Snow Light Snow
2:15 AM 33.8 °F 27.0 °F 30.2 °F 87% 29.87 in 2.0 mi South 8.1 mph - N/A Snow Light Snow
2:35 AM 33.8 °F 27.0 °F 30.2 °F 87% 29.86 in 1.8 mi South 8.1 mph - 0.01 in Snow Light Snow
2:55 AM 33.8 °F 27.0 °F 30.2 °F 87% 29.86 in 2.5 mi South 8.1 mph - 0.01 in   Overcast
2:56 AM 33.8 °F 27.0 °F 30.2 °F 87% 29.86 in 2.5 mi South 8.1 mph - N/A   Overcast
3:15 AM 33.8 °F 27.0 °F 30.2 °F 87% 29.85 in 2.0 mi SSW 8.1 mph - N/A   Overcast
3:16 AM 33.8 °F 27.0 °F 30.2 °F 87% 29.85 in 2.0 mi SSW 8.1 mph - N/A   Overcast
3:36 AM 33.8 °F 28.6 °F 32.0 °F 93% 29.84 in 1.5 mi SSW 5.8 mph - N/A   Overcast
4:15 AM 33.8 °F 27.0 °F 32.0 °F 93% 29.84 in 1.5 mi SSW 8.1 mph - N/A   Overcast
4:16 AM 33.8 °F 26.4 °F 32.0 °F 93% 29.84 in 1.5 mi SSW 9.2 mph - N/A   Overcast
4:35 AM 33.8 °F 27.0 °F 32.0 °F 93% 29.84 in 1.2 mi SSW 8.1 mph - N/A   Overcast
4:56 AM 33.8 °F 27.0 °F 32.0 °F 93% 29.83 in 1.5 mi SSW 8.1 mph - N/A   Overcast
5:15 AM 33.8 °F 27.0 °F 32.0 °F 93% 29.83 in 1.2 mi SSW 8.1 mph - N/A   Overcast
5:35 AM 33.8 °F 27.0 °F 32.0 °F 93% 29.83 in 1.0 mi SSW 8.1 mph - N/A   Overcast
5:55 AM 33.8 °F 27.7 °F 32.0 °F 93% 29.82 in 1.0 mi SSW 6.9 mph - N/A   Overcast
6:15 AM 33.8 °F 29.6 °F 32.0 °F 93% 29.81 in 1.2 mi SW 4.6 mph - N/A Snow Light Snow
6:55 AM 33.8 °F 28.6 °F 32.0 °F 93% 29.81 in 1.5 mi SW 5.8 mph - N/A   Overcast
7:15 AM 33.8 °F 28.6 °F 32.0 °F 93% 29.82 in 1.5 mi SW 5.8 mph - N/A   Overcast
7:16 AM 33.8 °F 28.6 °F 32.0 °F 93% 29.82 in 1.5 mi SW 5.8 mph - N/A   Overcast
7:35 AM 33.8 °F 29.6 °F 32.0 °F 93% 29.82 in 1.5 mi SW 4.6 mph - N/A   Overcast
7:55 AM 33.8 °F 29.6 °F 33.8 °F 100% 29.82 in 2.5 mi WSW 4.6 mph - N/A   Overcast
7:56 AM 33.8 °F 29.6 °F 33.8 °F 100% 29.82 in 2.5 mi WSW 4.6 mph - N/A   Overcast
8:15 AM 33.8 °F 28.6 °F 33.8 °F 100% 29.82 in 2.0 mi WSW 5.8 mph - N/A   Overcast
8:16 AM 33.8 °F 28.6 °F 33.8 °F 100% 29.82 in 2.5 mi West 5.8 mph - N/A   Overcast
8:35 AM 35.6 °F 31.7 °F 33.8 °F 93% 29.83 in 2.0 mi West 4.6 mph - N/A Rain Light Rain
8:36 AM 35.6 °F 30.7 °F 33.8 °F 93% 29.83 in 2.0 mi West 5.8 mph - N/A Rain Light Rain
8:55 AM 33.8 °F 26.4 °F 32.0 °F 93% 29.83 in 7.0 mi WNW 9.2 mph - N/A   Overcast
8:56 AM 33.8 °F 26.4 °F 32.0 °F 93% 29.83 in 7.0 mi West 9.2 mph - N/A   Overcast
9:35 AM 33.8 °F 28.6 °F 30.2 °F 87% 29.83 in 10.0 mi WNW 5.8 mph - N/A   Overcast
9:55 AM 33.8 °F 25.8 °F 30.2 °F 87% 29.84 in 10.0 mi WNW 10.4 mph - N/A   Overcast
9:56 AM 33.8 °F 26.4 °F 30.2 °F 87% 29.84 in 10.0 mi WNW 9.2 mph - N/A   Overcast
10:15 AM 33.8 °F 27.0 °F 30.2 °F 87% 29.84 in 10.0 mi WNW 8.1 mph - N/A   Overcast
10:16 AM 33.8 °F 27.7 °F 30.2 °F 87% 29.84 in 10.0 mi WNW 6.9 mph - N/A   Overcast
10:35 AM 33.8 °F 25.8 °F 30.2 °F 87% 29.84 in 10.0 mi WNW 10.4 mph - N/A   Overcast
10:55 AM 33.8 °F 25.8 °F 30.2 °F 87% 29.84 in 10.0 mi WNW 10.4 mph - N/A   Overcast
11:15 AM 33.8 °F 25.8 °F 30.2 °F 87% 29.83 in 10.0 mi WNW 10.4 mph - N/A   Overcast
11:35 AM 33.8 °F 27.0 °F 28.4 °F 81% 29.83 in 10.0 mi WNW 8.1 mph - N/A   Overcast
11:36 AM 33.8 °F 27.7 °F 28.4 °F 81% 29.83 in 10.0 mi WNW 6.9 mph - N/A   Overcast
11:55 AM 33.8 °F 26.4 °F 28.4 °F 81% 29.82 in 10.0 mi NW 9.2 mph - N/A   Overcast
12:15 PM 32.0 °F 23.6 °F 28.4 °F 87% 29.82 in 10.0 mi West 10.4 mph - N/A   Overcast
12:16 PM 32.0 °F 24.2 °F 28.4 °F 87% 29.82 in 10.0 mi West 9.2 mph - N/A   Overcast
12:35 PM 32.0 °F 24.2 °F 28.4 °F 87% 29.82 in 10.0 mi West 9.2 mph - N/A   Overcast
1:15 PM 32.0 °F 23.0 °F 28.4 °F 87% 29.81 in 10.0 mi West 11.5 mph - N/A   Overcast
1:16 PM 32.0 °F 23.0 °F 28.4 °F 87% 29.81 in 10.0 mi WNW 11.5 mph - N/A   Overcast
1:35 PM 32.0 °F 23.0 °F 26.6 °F 80% 29.81 in 10.0 mi West 11.5 mph - N/A   Overcast
1:55 PM 32.0 °F 23.6 °F 26.6 °F 80% 29.81 in 10.0 mi WNW 10.4 mph - N/A   Overcast
1:56 PM 32.0 °F 23.0 °F 26.6 °F 80% 29.81 in 10.0 mi WNW 11.5 mph - N/A   Overcast
2:15 PM 32.0 °F 25.6 °F 26.6 °F 80% 29.81 in 10.0 mi West 6.9 mph - N/A   Overcast
2:35 PM 30.2 °F 20.2 °F 26.6 °F 86% 29.81 in 10.0 mi WNW 12.7 mph - N/A   Overcast
2:36 PM 30.2 °F 20.2 °F 26.6 °F 86% 29.81 in 10.0 mi WNW 12.7 mph - N/A   Overcast
2:55 PM 30.2 °F 22.6 °F 26.6 °F 86% 29.81 in 10.0 mi WNW 8.1 mph - N/A   Overcast
2:56 PM 30.2 °F 21.9 °F 26.6 °F 86% 29.81 in 10.0 mi West 9.2 mph - N/A   Overcast
3:35 PM 30.2 °F 21.3 °F 24.8 °F 80% 29.82 in 10.0 mi West 10.4 mph - N/A   Overcast
3:55 PM 30.2 °F 22.6 °F 24.8 °F 80% 29.82 in 10.0 mi West 8.1 mph - N/A   Overcast
4:15 PM 30.2 °F 22.6 °F 24.8 °F 80% 29.83 in 10.0 mi WNW 8.1 mph - N/A   Overcast
4:35 PM 30.2 °F 22.6 °F 24.8 °F 80% 29.84 in 10.0 mi WNW 8.1 mph - N/A   Overcast
5:15 PM 30.2 °F 22.6 °F 24.8 °F 80% 29.84 in 10.0 mi WNW 8.1 mph - N/A   Overcast
5:35 PM 30.2 °F 24.3 °F 24.8 °F 80% 29.83 in 10.0 mi WNW 5.8 mph - N/A   Unknown
5:36 PM 30.2 °F 25.4 °F 24.8 °F 80% 29.83 in 10.0 mi WNW 4.6 mph - N/A   Overcast
5:55 PM 30.2 °F 25.4 °F 24.8 °F 80% 29.83 in 10.0 mi WNW 4.6 mph - N/A   Overcast
6:15 PM 30.2 °F - 24.8 °F 80% 29.82 in 10.0 mi Calm Calm - N/A   Overcast
6:16 PM 30.2 °F 26.7 °F 24.8 °F 80% 29.82 in 10.0 mi WNW 3.5 mph - N/A   Overcast
6:35 PM 30.2 °F 25.4 °F 24.8 °F 80% 29.82 in 10.0 mi WNW 4.6 mph - N/A   Overcast
6:55 PM 28.4 °F 21.2 °F 24.8 °F 86% 29.81 in 10.0 mi WNW 6.9 mph - N/A   Overcast
6:56 PM 28.4 °F 22.2 °F 24.8 °F 86% 29.81 in 10.0 mi WNW 5.8 mph - N/A   Overcast
7:15 PM 28.4 °F 23.3 °F 24.8 °F 86% 29.81 in 10.0 mi West 4.6 mph - N/A   Overcast
7:35 PM 28.4 °F 23.3 °F 24.8 °F 86% 29.80 in 10.0 mi WNW 4.6 mph - N/A   Overcast
7:55 PM 28.4 °F 23.3 °F 24.8 °F 86% 29.80 in 10.0 mi West 4.6 mph - N/A   Overcast
7:56 PM 28.4 °F 22.2 °F 24.8 °F 86% 29.80 in 10.0 mi West 5.8 mph - N/A   Overcast
8:15 PM 28.4 °F 22.2 °F 24.8 °F 86% 29.80 in 10.0 mi West 5.8 mph - N/A   Overcast
8:35 PM 28.4 °F 23.3 °F 24.8 °F 86% 29.81 in 10.0 mi West 4.6 mph - N/A   Overcast
8:55 PM 28.4 °F 22.2 °F 24.8 °F 86% 29.81 in 10.0 mi West 5.8 mph - N/A   Overcast
9:15 PM 28.4 °F 20.4 °F 23.0 °F 80% 29.81 in 10.0 mi West 8.1 mph - N/A   Overcast
9:35 PM 28.4 °F 21.2 °F 23.0 °F 80% 29.81 in 10.0 mi WNW 6.9 mph - N/A   Overcast
9:55 PM 28.4 °F 21.2 °F 23.0 °F 80% 29.81 in 10.0 mi WNW 6.9 mph - N/A   Overcast
10:15 PM 28.4 °F 23.3 °F 23.0 °F 80% 29.80 in 10.0 mi West 4.6 mph - N/A   Overcast
10:16 PM 28.4 °F 21.2 °F 23.0 °F 80% 29.80 in 10.0 mi West 6.9 mph - N/A   Overcast
10:35 PM 28.4 °F 21.2 °F 23.0 °F 80% 29.80 in 10.0 mi WNW 6.9 mph - N/A   Overcast
10:55 PM 28.4 °F 23.3 °F 23.0 °F 80% 29.80 in 10.0 mi West 4.6 mph - N/A   Overcast
10:56 PM 28.4 °F 23.3 °F 23.0 °F 80% 29.79 in 10.0 mi West 4.6 mph - N/A   Overcast
11:15 PM 28.4 °F - 23.0 °F 80% 29.79 in 10.0 mi Calm Calm - N/A   Overcast
11:16 PM 28.4 °F 24.6 °F 23.0 °F 80% 29.79 in 10.0 mi West 3.5 mph - N/A   Overcast
11:35 PM 28.4 °F - 23.0 °F 80% 29.78 in 10.0 mi Calm Calm - N/A   Overcast
11:36 PM 28.4 °F - 23.0 °F 80% 29.78 in 10.0 mi Calm Calm - N/A   Overcast
11:55 PM 28.4 °F 23.3 °F 23.0 °F 80% 29.78 in 10.0 mi West 4.6 mph - N/A   Overcast